Welcome to the New NWS' Forecast!
Most changes are behind the scenes, but click here for differences you might notice.
Latest weather observations around

Tuscaloosa Regional Airport (KTCL)

Using English Units (Switch to International System of Units)
Date/ Time (CST) Wind (mph) Vis. (mi) Weather Sky Cond. Temp (°F) Rel. Humidity Wind Chill (°F) Heat Index (°F) Pressure Precip. (in)
Air Dwpt 6 hour Altimeter (inHg) Sea level (inHg) 1 hr 3 hr 6 hr
Max Min
Nov 18 01:53 S 9 10 Clear CLR 60 58     93%     29.95 29.95      
Nov 18 00:53 S 10 10 Clear CLR 61 57     87%     29.96 29.95      
Nov 17 23:53 S 11 10 Clear CLR 61 55     81%     29.98 29.97      
Nov 17 22:53 SSE 5 10 Mostly Cloudy BKN034 61 51     70%     29.99 29.98      
Nov 17 21:53 SSE 5 10 Clear CLR 61 51     70%     30.01 30      
Nov 17 20:53 6 10 Clear CLR 62 51     67%     30.01 30      
Nov 17 19:53 SE 9 10 Clear CLR 63 52     67%     30.01 30.01      
Nov 17 18:53 SE 8 10 Clear CLR 64 53     67%     30.01 30.01      
Nov 17 17:53 SE 6 10 Clear CLR 65 53     65%     30.02 30.02      
Nov 17 16:53 SSW 7 10 Clear CLR 65 53     65%     30.03 30.03      
Nov 17 15:53 S 6 10 Clear CLR 70 53     55%     30.02 30.02      
Nov 17 14:53 SSW 8 10 Clear CLR 71 52     51%   70 30.03 30.03      
Nov 17 13:53 6 10 Clear CLR 71 51     49%   70 30.05 30.04      
Nov 17 12:53 W 3 10 Clear CLR 70 51     51%     30.07 30.07      
Nov 17 11:53 S 6 10 Clear CLR 68 49     50%     30.11 30.11      
Nov 17 10:53 Calm 10 Clear CLR 65 48     54%     30.14 30.14      
Nov 17 09:53 SSE 3 10 Clear CLR 61 47     60%     30.17 30.16      
Nov 17 08:53 NE 3 10 Clear CLR 54 48     80%     30.19 30.19      
Nov 17 07:53 NNE 5 9 Clear CLR 48 46     93% 46   30.2 30.19      
Nov 17 06:53 Calm 8 Clear CLR 41 41     100%     30.2 30.19      
Nov 17 05:53 Calm 9 Clear CLR 41 40     96%     30.17 30.16      
Nov 17 04:53 NNE 3 9 Clear CLR 41 41     100% 39   30.16 30.15      
Nov 17 03:53 Calm 7 Clear CLR 42 42     100%     30.16 30.15      
Nov 17 02:53 Calm 9 Clear CLR 42 42     100%     30.15 30.15      
Nov 17 01:53 Calm 8 Clear CLR 44 44     100%     30.15 30.14      
Nov 17 00:53 Calm 7 Clear CLR 45 45     100%     30.16 30.16      
Nov 17 00:24 Calm 6 Fog/Mist CLR 46 46     100%     30.16        
Nov 17 00:14 Calm 1.5 Fog/Mist CLR 46 46     100%     30.16        
Nov 16 23:53 Calm 7 Clear CLR 45 45     100%     30.17 30.16      
Nov 16 22:53 Calm 7 Clear CLR 47 47     100%     30.17 30.17      
Nov 16 22:02 Calm 3 Fog/Mist CLR 48 48     100%     30.17        
Nov 16 21:59 Calm 1.25 Fog/Mist CLR 48 48     100%     30.17        
Nov 16 21:53 Calm 0.25 Fog CLR 48 48     100%     30.17 30.17      
Nov 16 21:46 Calm 0.25 Fog CLR 48 48     100%     30.17        
Nov 16 21:32 Calm 1.75 Fog/Mist CLR 49 49     100%     30.17        
Nov 16 20:53 Calm 6 Fog/Mist CLR 50 50     100%     30.16 30.16      
Nov 16 20:31 Calm 3 Fog/Mist CLR 51 51     100%     30.16        
Nov 16 20:22 NNE 3 1.75 Fog/Mist CLR 51 51     100%     30.16        
Nov 16 19:53 NE 3 7 Clear CLR 51 51     100%     30.15 30.14      
Nov 16 18:53 Calm 10 Clear CLR 55 53     93%     30.14 30.14      
Nov 16 17:53 Calm 10 Clear CLR 57 54     89%     30.14 30.14      
Nov 16 16:53 Calm 10 Clear CLR 62 55     78%     30.13 30.12      
Nov 16 14:53 Calm 10 Cloudy OVC031 66 54     65%     30.13 30.12      
Nov 16 14:13 NNW 7 10 Cloudy OVC031 65 53     65%     30.13        
Nov 16 13:53 WNW 6 10 Cloudy OVC029 65 54     68%     30.13 30.13      
Nov 16 12:53 Calm 10 Cloudy OVC028 65 54     68%     30.15 30.14      
Nov 16 11:53 NNE 5 10 Cloudy OVC025 63 53     70%     30.16 30.16      
Nov 16 11:15 N 5 10 Cloudy OVC029 63 52     67%     30.18        
Nov 16 10:53 NNE 6 10 Cloudy OVC031 64 52     65%     30.18 30.18      
Nov 16 09:53 NNE 5 10 Cloudy OVC032 60 52     75%     30.19 30.19      
Nov 16 08:53 NE 3 5 Haze OVC033 57 52     83%     30.19 30.19      
Nov 16 07:53 Calm 5 Fog/Mist OVC036 54 53     97%     30.18 30.17      
Nov 16 06:53 Calm 4 Fog/Mist SCT039 49 49     100%     30.16 30.16      
Nov 16 05:53 Calm 7 Mostly Cloudy BKN042 51 51     100%     30.14 30.14      
Nov 16 04:53 NE 3 8 Cloudy OVC044 52 51     97%     30.13 30.13      
Nov 16 03:53 Calm 7 Cloudy OVC040 51 51     100%     30.14 30.14      
Nov 16 02:53 Calm 8 Mostly Cloudy BKN043 49 49     100%     30.13 30.12      
Nov 16 01:53 Calm 6 Fog/Mist CLR 50 50     100%     30.12 30.11      
Nov 16 00:53 Calm 5 Fog/Mist FEW065 50 50     100%     30.11 30.11      
Nov 15 23:53 Calm 9 Cloudy OVC080 52 52     100%     30.13 30.12      
Nov 15 22:53 Calm 9 Cloudy OVC075 53 52     96%     30.12 30.12      
Nov 15 21:53 Calm 10 Mostly Cloudy BKN070 52 51     97%     30.12 30.12      
Nov 15 20:53 Calm 10 Cloudy OVC080 56 53     90%     30.13 30.13      
Nov 15 19:53 Calm 10 Mostly Cloudy BKN080 BKN120 56 51     84%     30.12 30.11      
Nov 15 18:53 Calm 10 Cloudy BKN075 OVC120 54 51     90%     30.11 30.1      
Nov 15 17:53 Calm 10 Mostly Clear FEW095 56 50     80%     30.1 30.1      
Nov 15 16:53 Calm 10 Cloudy BKN090 OVC120 60 49     67%     30.11 30.1      
Nov 15 15:53 WSW 5 10 Cloudy BKN085 OVC110 63 48     58%     30.1 30.09      
Nov 15 14:53 SSE 5 10 Mostly Cloudy BKN120 63 46     54%     30.08 30.07      
Nov 15 13:53 SSW 6 10 Cloudy OVC110 63 46     54%     30.1 30.09      
Nov 15 12:53 S 7 10 Mostly Cloudy BKN110 62 46     56%     30.11 30.11      
Nov 15 11:53 S 10 10 Clear CLR 62 46     56%     30.13 30.13      
Nov 15 10:53 5 10 Clear CLR 60 45     57%     30.17 30.16      
Nov 15 09:53 SSE 11 10 Clear CLR 58 45     62%     30.19 30.19      
Nov 15 08:53 SE 10 10 Clear CLR 53 44     71%     30.2 30.2      
Nov 15 07:53 SE 10 10 Clear CLR 50 44     80% 46   30.2 30.19      
Nov 15 06:53 SE 7 10 Clear CLR 48 44     86% 45   30.18 30.17      
Nov 15 05:53 Calm 10 Clear CLR 47 45     93%     30.17 30.16      
Nov 15 04:53 NE 3 9 Clear CLR 42 42     100% 40   30.17 30.17      
Nov 15 03:53 Calm 9 Clear CLR 43 42     97%     30.16 30.16      
Nov 15 02:53 Calm 9 Clear CLR 44 43     96%     30.16 30.15      
Jun 11 13:53 7 10 Mostly Clear FEW050 90 67     47%   93 30.1 30.09      
Jun 11 12:53 SE 7 10 Mostly Clear FEW048 88 67     50%   91 30.11 30.1      
Jun 10 23:53 NNE 3 10 Clear CLR 71 66     84%   72 30.07 30.06 0    
Jun 10 11:53 3 10 Partly Cloudy SCT080 86 60     42%   86 30.07 30.06      
Jun 10 09:53 6 10 Clear CLR 81 62     53%   82 30.07 30.06      
Jun 09 15:53 SW 7 10 Clear CLR 82 58     44%   82 29.94 29.93      
Jun 09 01:53 Calm 8 Clear CLR 61 59     93%     29.92 29.91      
Jun 08 10:53 N 8 10 Clear CLR 76 59     56%   76 29.94 29.93      
Jun 06 03:53 NE 3 10 Cloudy OVC007 72 70     93%   73 29.77 29.76      
Jun 05 21:43 NE 5 10 Cloudy BKN009 OVC023 72 71     97%   73 29.8   0